Location: Freemans Gardens
(41.6414°N, 83.6077°W)
Time: 14:26:47
(UTC+00:00)

Daily predictions for brighter satellites

Satellite Brightness Start Highest point End
(mag) Time Altitude Azimuth Time Altitude Azimuth Time Altitude Azimuth
Meteor 1-11 4.4 22:55:20 10° N 23:01:07 86° W 23:06:54 10° S
SMAP 3.1 22:57:06 10° SSE 23:01:44 85° ENE 23:06:25 10° NNW
Cosmos 1408 4.3 23:00:39 10° NE 23:02:31 13° ENE 23:04:23 10° ESE
Cosmos 1689 Rocket 3.6 23:00:56 10° NE 23:02:58 17° E 23:04:58 10° SE
FengYun 1-2 T 4.4 22:58:25 10° SSE 23:03:56 58° ENE 23:09:27 10° N
H-2A R/B 3.7 23:02:55 10° E 23:05:42 14° ENE 23:08:30 10° NNE
AQUARIUS 4.2 23:02:59 10° SSE 23:07:28 85° E 23:11:59 10° NNW
Cosmos 1953 Rocket 3.5 23:04:58 10° N 23:09:24 74° E 23:13:50 10° SSE
Cosmos 44 Rocket 4.5 23:08:48 10° SSE 23:12:24 22° ESE 23:16:07 10° ENE
Lacrosse 5 4.0 23:11:02 10° NNW 23:13:37 14° N 23:16:13 10° NNE
Cosmos 2058 Rocket 3.1 23:09:38 10° S 23:14:03 61° E 23:18:30 10° NNE
Cosmos 2219 3.2 23:12:19 10° NNW 23:18:05 67° ENE 23:23:47 10° SSE
Meteor 2-16 Rocket 4.4 23:12:10 10° N 23:18:17 81° E 23:24:23 10° S
Cosmos 1892 3.3 23:17:51 10° N 23:21:26 34° ENE 23:24:59 10° SE
Cosmos 1939 Rocket 3.1 23:19:42 10° SE 23:23:27 43° ENE 23:27:10 10° N
Cosmos 968 Rocket 3.7 23:19:54 10° N 23:24:57 47° ENE 23:29:54 10° SE
Cosmos 2082 4.4 23:19:48 10° N 23:25:00 34° ENE 23:30:09 10° ESE
Cosmos 1656 3.6 23:19:52 10° SSW 23:25:25 83° ESE 23:31:06 10° NNE
CZ-4B R/B 1.8 23:24:23 10° N 23:27:32 60° WNW 23:30:35 10° SSW
SAR-Lupe-4 3.5 23:24:37 10° NNE 23:28:13 70° ESE 23:31:46 10° S
Cosmos 1300 3.8 23:25:17 10° SSW 23:28:57 47° W 23:32:40 10° N
Aureole 3 Rocket 3.2 23:25:44 10° S 23:29:42 83° E 23:35:15 10° N
Cosmos 1745 Rocket 4.3 23:25:01 10° N 23:31:00 43° ENE 23:36:58 10° SSE
NOSS 3-3 (A) 3.9 23:25:47 10° SSW 23:31:22 59° ESE 23:37:37 10° NE
NOSS 3-3 (C) 3.9 23:25:54 10° SSW 23:31:29 58° ESE 23:37:44 10° NE
USA 307 3.7 23:28:40 10° NW 23:32:35 34° NNE 23:35:03 19° E
Cosmos 1400 Rocket 3.1 23:29:10 10° SSW 23:33:16 75° W 23:37:21 10° N
CZ-4B R/B 4.5 23:29:33 10° S 23:34:54 46° W 23:40:12 10° NNW
H-2A R/B 4.4 23:32:05 10° NNW 23:35:19 22° WNW 23:38:32 10° WSW
Cosmos 1825 3.4 23:33:20 10° NNE 23:36:18 21° ENE 23:37:07 20° E
Feng Yun 1-1 Rocket 4.4 23:30:28 10° SSE 23:36:22 82° ENE 23:42:19 10° NNW
ERS-2 3.3 23:33:28 10° N 23:36:57 44° WNW 23:40:26 10° SW
USA 308 3.7 23:33:38 10° NW 23:37:36 36° NNE 23:39:51 21° E
COSMO-SKYMED 1 2.5 23:33:40 10° NNE 23:38:01 70° ESE 23:42:20 10° S
Cosmos 2369 4.0 23:32:52 10° S 23:38:19 47° ESE 23:43:46 10° NE
IRS-1C Rocket 4.0 23:33:08 10° SSE 23:38:21 68° ENE 23:43:36 10° N
GPS 2-04 Rocket1 4.2 23:35:37 10° SW 23:38:57 25° SSE 23:41:13 16° ESE
Helios 1A Rocket 3.1 23:38:09 10° SE 23:42:06 47° ENE 23:46:03 10° N
OAO 2 Rocket 4.2 23:39:04 10° WSW 23:43:42 38° S 23:46:58 17° ESE
ATLAS 2AS CENTAUR R/B 4.0 23:39:26 10° NNW 23:45:27 25° NNE 23:48:38 19° ENE
CSL-04 Rocket 4.4 23:40:48 10° SE 23:45:34 31° ENE 23:50:20 10° N
SAR-Lupe-1 4.2 23:42:28 10° N 23:46:02 73° WNW 23:49:33 10° SSW
CZ-4 R/B 4.4 23:42:10 10° SSE 23:46:17 63° ENE 23:50:24 10° N
CZ-2D R/B 3.2 23:42:43 10° SSE 23:46:27 58° ENE 23:50:12 10° N
Cosmos 1340 3.0 23:43:34 10° NNW 23:47:20 67° W 23:51:04 10° S
YAOGAN 1 3.0 23:44:08 10° SE 23:48:08 39° ENE 23:52:11 10° N
Cosmos 2227 Rocket 2.2 23:43:01 10° NNW 23:48:43 89° ENE 23:54:23 10° SSE
Cosmos 2263 Rocket 3.7 23:46:19 10° N 23:49:57 17° NE 23:50:16 17° NE
CZ-4 R/B 1.4 23:48:25 10° SSE 23:52:10 48° ENE 23:55:54 10° N
Cosmos 1812 Rocket 3.8 23:50:09 10° SSE 23:54:20 45° E 23:58:31 10° NNE
Okean O Rocket 4.1 23:52:45 10° SSW 23:56:21 25° W 23:59:58 10° NW
